{"data":{"norad_id":64501,"intl_designator":"2025-134B","name":"KUIPER-00040","alt_names":[],"object_type":"PAYLOAD","status":"ACTIVE","operator":null,"country":"US","launch_date":"2025-06-23","launch_site_code":"AFETR","launch_vehicle":null,"mission":null,"orbit_class":"UNKNOWN","rcs_meters":null,"size_class":null,"mass_kg":null,"dimensions":null,"purposes":[],"wikipedia_slug":null,"has_3d_model":false,"image_url":null,"decayed_at":null,"tle_current":{"epoch":"2026-09-21T21:28:45.637824Z","epoch_age_seconds":61219,"freshness":"FRESH","line1":"1 64501U 25134B   26264.89497266  .00001791  00000+0  26379-3 0  9999","line2":"2 64501  51.8980  95.5563 0001089 116.8606 243.2468 14.79938064 68989","mean_motion":14.79938064,"eccentricity":0.0001089,"inclination_deg":51.898,"raan_deg":95.5563,"arg_perigee_deg":116.8606,"mean_anomaly_deg":243.2468,"bstar":0.00026379,"rev_number":6898,"period_min":97.301369228111,"perigee_km":628.75650961897,"apogee_km":630.28277723591,"semimajor_km":7007.6566434274,"source":"CELESTRAK","updated_at":"2026-09-22T09:00:29.805462Z"}}}